Powrót do katalogu

ONEWEB-0611

AktywnyŁącznośćPO
NORAD 54674·PAYLOAD·🇬🇧 United Kingdom

Wystrzelony Dec 8, 2022 z Cape Canaveral Space Force Station

Loading…

Następne Przeloty (najbliższe 24 godziny)

TLE

ŚwieżeSource: CelesTrak SupGP

Epoka: Sep 14, 2026, 12:38 UTC

1 54674C 22166AJ  26257.52657824 -.00002596  00000+0 -62938-2 0  2574
2 54674  87.9281 226.1926 0002021  80.7224  29.4432 13.21831624    15

Śledź ONEWEB-0611 w czasie rzeczywistym z AllMySat

Download on the App Store